Theta_e
351 348 350 353 353 354 360 359 358 352 342 335 334 332 330 331 330 328 332 335 331 334 337 338 340 340 341 345 350 350 350 350 351 353 354 353 353 352 353 353 352 352 351
352 349 350 354 355 367 363 359 357 345 337 333 332 330 329 329 327 330 329 333 331 331 332 335 337 338 338 342 345 346 348 348 347 347 348 348 349 351 352 352 352 352 351
357 357 353 357 358 357 356 355 346 340 336 330 327 325 328 330 328 331 331 330 333 333 330 330 332 335 336 341 342 343 344 344 343 342 342 343 342 343 345 350 352 352 351
360 358 357 354 352 353 351 346 343 338 333 332 330 329 325 328 329 331 329 329 331 329 332 330 329 333 336 338 342 342 341 341 339 338 338 338 338 339 340 342 345 349 350
358 357 354 351 347 346 346 342 339 339 333 332 330 326 327 327 329 326 329 329 333 330 329 333 330 332 330 336 338 338 339 338 336 335 335 335 334 334 336 338 340 342 345
353 353 351 348 344 340 339 336 336 333 330 326 322 322 326 326 328 328 329 329 330 331 330 331 331 332 331 332 334 335 336 336 335 334 334 333 332 332 332 334 335 338 340
351 349 347 344 340 337 337 336 333 330 326 327 324 325 325 329 330 328 329 327 329 330 330 329 329 329 331 335 331 331 333 334 333 332 331 329 329 330 331 331 333 334 336
346 345 344 342 341 336 336 334 332 326 327 329 324 323 318 322 325 328 328 327 328 328 327 328 329 331 333 332 334 329 331 331 330 329 328 327 327 329 330 330 331 334 335
343 343 342 340 339 337 332 334 333 333 327 329 329 323 319 315 319 323 327 327 329 328 328 328 329 330 332 331 332 331 330 327 328 328 326 325 326 328 328 329 331 336 337
341 341 341 340 339 336 338 335 335 333 332 326 328 329 330 327 316 314 321 323 327 325 327 326 326 329 331 329 329 329 328 324 325 324 324 324 325 326 327 328 331 333 335
335 336 337 338 338 335 337 336 335 334 331 328 326 325 327 325 325 320 314 317 320 321 323 323 324 326 327 329 330 328 322 322 321 320 321 322 323 324 326 328 330 331 334
327 332 332 333 337 336 335 335 335 334 333 331 327 326 323 320 318 319 316 317 316 318 321 322 325 324 324 328 324 321 321 319 318 318 318 319 320 322 324 326 327 329 331
316 322 324 324 326 330 333 333 334 333 332 330 330 325 324 322 322 320 318 315 313 316 317 319 320 321 323 327 324 320 319 316 315 316 316 315 316 317 318 320 322 323 324
312 316 316 318 322 323 326 330 330 331 332 330 327 328 324 322 321 321 315 312 310 313 314 317 318 319 323 322 319 316 315 314 314 313 313 312 312 313 313 313 314 316 316
311 313 315 315 317 318 321 323 324 326 327 323 322 323 316 322 313 315 314 311 307 305 309 313 313 321 320 317 314 312 311 312 313 311 310 309 309 309 309 309 309 310 311
306 307 310 312 314 315 317 321 320 320 319 319 320 317 315 314 311 311 310 311 311 306 305 312 314 316 313 310 310 310 309 309 309 309 308 307 306 306 306 306 306 306 307
304 305 307 309 312 312 314 319 321 319 315 315 316 316 314 310 310 312 314 313 311 313 306 308 309 309 311 309 308 310 309 311 310 308 307 306 305 306 305 305 305 304 304
305 307 308 311 311 312 313 315 316 317 316 314 314 310 309 312 313 314 314 311 310 310 306 303 306 306 306 308 307 307 308 308 308 307 307 306 306 305 305 305 304 304 303
307 307 307 310 308 313 313 315 313 315 315 312 311 312 312 313 313 308 307 309 307 305 304 302 302 306 306 306 307 309 309 308 309 308 307 308 307 305 305 304 304 303 302
307 308 306 305 306 309 310 310 310 312 311 311 312 313 312 308 307 308 306 303 303 303 304 302 302 304 305 307 307 305 303 305 305 306 306 305 306 306 304 303 303 304 303
307 307 307 307 308 308 307 308 310 311 312 311 312 308 306 305 304 304 303 303 303 305 304 301 301 303 303 302 302 304 303 305 306 307 304 306 308 308 306 305 305 304 303
307 307 307 306 307 308 301 302 304 311 310 310 304 304 303 302 302 303 303 303 304 305 304 303 302 301 302 302 303 303 303 301 299 308 303 302 307 304 306 306 302 302 302
306 304 303 304 304 305 300 300 302 307 303 302 301 301 302 304 306 306 304 303 304 302 302 305 304 303 303 304 305 303 303 302 301 303 303 300 304 302 306 306 302 302 301
300 300 301 302 302 302 300 300 301 302 302 305 305 304 305 307 307 304 303 306 305 306 308 307 308 307 306 307 306 305 305 305 304 306 305 297 301 300 304 306 302 301 301
300 301 303 304 302 303 299 299 304 308 307 307 307 307 305 306 296 296 302 304 305 306 305 303 302 301 299 299 302 304 302 300 299 300 303 300 298 297 301 303 302 301 300
304 307 307 307 302 305 296 297 301 305 305 304 307 306 297 299 295 295 305 306 304 305 306 303 303 304 303 306 303 305 303 299 299 297 303 298 297 297 294 302 301 301 299
Wind_Speed
3 5 4 5 5 5 4 5 4 4 4 5 5 3 3 4 3 2 2 8 5 7 8 9 9 10 10 9 7 7 8 8 8 9 11 14 17 19 20 21 22 23 24
3 4 5 4 6 5 5 5 2 3 2 1 6 4 4 5 5 4 3 6 7 4 6 8 9 10 10 10 6 7 8 8 10 11 10 9 10 12 17 20 21 22 23
4 5 5 6 4 2 2 2 4 4 2 1 2 8 8 6 5 4 4 3 3 10 4 3 7 9 9 9 8 7 7 9 10 10 10 9 10 11 13 15 19 21 22
6 6 6 5 4 4 4 4 3 3 1 3 3 6 8 8 6 4 4 5 3 4 8 5 4 8 8 7 6 6 8 7 9 10 12 13 13 14 15 15 15 14 19
6 6 5 4 4 4 4 5 5 5 5 4 7 9 5 6 5 4 5 5 3 5 5 4 6 8 2 5 7 8 9 8 9 11 11 12 13 15 16 17 17 16 15
5 6 5 5 6 5 5 6 6 7 7 6 7 5 5 5 4 5 6 6 6 6 6 7 7 2 8 3 5 8 9 9 11 13 13 13 14 16 17 18 19 19 19
4 4 5 5 6 6 7 7 7 7 7 6 7 9 7 7 8 7 7 7 7 8 6 6 7 6 4 9 5 7 10 10 11 12 14 15 16 17 18 19 20 20 21
5 6 7 6 7 6 7 9 9 7 8 5 7 6 10 9 9 8 7 9 7 6 10 7 9 9 8 9 7 3 12 10 10 12 13 16 17 19 20 21 22 21 22
7 6 8 8 7 8 7 8 8 10 9 6 8 8 10 11 10 8 10 7 7 8 9 10 10 10 9 9 10 6 6 7 12 14 14 16 17 19 21 22 22 20 20
10 10 9 9 9 9 9 8 9 10 8 11 9 8 10 11 11 13 11 7 10 11 10 10 10 12 11 10 7 8 10 8 13 15 15 16 18 18 21 22 23 19 20
9 10 11 11 11 10 12 11 12 9 9 10 11 9 8 9 10 10 13 11 11 12 12 10 12 9 15 7 5 6 10 11 10 14 16 16 17 17 18 20 19 16 17
9 10 10 11 11 12 13 12 11 12 11 12 9 10 10 10 11 10 13 14 14 12 9 10 6 8 8 7 5 8 11 6 10 12 11 10 11 15 15 17 15 16 15
11 11 12 12 11 13 11 11 10 12 12 11 11 9 9 8 10 10 9 12 13 12 10 10 9 8 4 6 6 9 10 7 11 10 9 7 9 11 14 17 18 16 18
13 15 14 14 14 13 13 12 9 9 10 7 12 10 8 6 6 13 8 9 12 14 13 12 9 9 7 5 8 9 8 9 11 12 3 5 8 10 11 13 15 16 16
13 15 16 16 16 14 11 10 8 10 8 6 6 8 4 4 2 2 4 6 8 11 13 12 10 8 4 5 6 4 6 8 8 6 5 7 7 7 8 9 11 13 14
15 15 16 16 16 15 14 9 6 6 7 6 4 4 3 3 5 4 5 8 10 12 15 9 10 9 5 4 4 5 6 7 6 7 4 5 5 5 6 7 9 10 12
13 14 15 15 15 14 13 12 11 8 6 6 6 5 4 3 5 8 8 10 9 10 9 7 2 3 6 4 4 5 5 5 4 3 4 4 4 4 4 5 7 8 9
12 12 11 14 14 13 12 12 12 11 8 6 4 4 8 8 11 10 7 8 9 7 5 6 4 2 4 3 4 6 4 2 4 3 6 6 6 5 4 3 5 6 8
10 9 12 11 15 12 10 7 4 3 3 4 6 8 11 10 10 6 7 8 7 6 5 3 2 3 3 2 4 5 5 4 6 6 13 13 8 6 3 2 4 4 6
10 10 9 10 11 10 7 8 7 7 7 7 8 10 9 8 4 6 5 5 5 4 2 4 3 4 3 2 5 5 5 4 5 4 3 3 4 5 5 3 2 4 6
8 8 9 9 8 7 7 10 8 7 6 8 8 11 7 9 9 7 4 4 6 4 4 4 5 5 3 4 6 5 5 5 4 4 5 4 3 4 4 9 2 4 9
9 9 11 11 11 9 14 12 9 8 6 9 9 8 7 6 2 3 3 5 8 9 5 4 2 4 5 5 5 6 5 6 6 2 7 7 3 4 3 2 5 7 9
12 11 11 11 11 10 12 9 4 9 10 10 7 4 3 2 6 6 2 7 6 4 5 7 6 7 8 7 8 9 7 7 5 4 7 5 4 6 2 2 5 8 8
9 8 10 10 10 11 16 17 15 9 7 7 5 4 4 5 6 8 8 8 5 7 4 5 7 6 8 10 10 9 10 9 3 0 6 5 7 7 5 0 5 8 7
8 8 9 13 11 10 13 12 9 9 8 7 4 5 9 10 14 11 10 11 10 7 3 2 8 8 7 8 8 8 6 6 6 4 5 7 3 5 6 1 0 6 4
8 7 11 10 8 9 13 12 13 5 6 5 7 8 14 11 11 10 10 8 8 5 1 5 6 6 9 6 6 4 7 4 6 2 6 7 5 3 3 1 1 1 4
Wind_Direction
296 286 296 285 297 295 348 290 273 325 33 358 344 322 288 280 249 231 241 118 43 21 9 1 355 347 345 341 333 352 355 354 350 326 278 256 251 247 242 240 237 234 230
257 288 259 275 268 288 254 249 238 138 132 231 301 326 315 312 283 282 262 152 129 95 33 7 351 341 336 331 331 2 7 14 13 9 6 357 337 299 268 256 247 242 237
236 267 261 277 294 293 259 184 148 138 150 278 326 347 290 256 257 240 264 301 158 154 107 29 347 333 334 327 328 347 10 3 5 357 351 347 337 328 337 295 262 252 244
246 256 264 276 285 240 225 175 161 162 73 322 266 230 239 250 261 231 263 288 320 317 166 121 338 319 336 331 332 341 342 350 354 342 338 337 333 329 324 317 315 294 257
274 275 283 274 244 238 212 189 179 184 197 214 242 232 256 265 244 266 290 281 233 287 320 109 190 253 263 331 331 329 326 333 332 329 329 333 331 326 320 314 309 305 300
285 257 237 230 219 224 209 202 201 195 209 215 246 246 247 240 234 263 250 251 253 275 282 309 309 255 184 217 312 315 315 311 320 320 322 326 323 319 315 310 304 299 293
296 274 267 227 229 230 233 200 203 208 214 222 252 249 242 210 230 244 232 262 280 278 307 289 282 311 279 169 222 286 305 296 312 316 322 324 320 315 312 307 299 293 288
301 275 273 247 234 236 223 214 221 230 247 239 273 288 281 262 240 221 243 287 283 290 294 289 305 294 284 302 297 284 280 278 305 309 320 319 316 314 311 307 300 292 284
312 288 273 270 256 259 227 230 233 248 268 237 247 286 279 279 304 286 257 228 293 281 295 279 288 284 284 286 291 281 232 322 312 310 316 314 313 309 309 306 301 294 281
321 307 288 280 269 270 274 245 247 264 248 273 264 222 271 297 290 293 283 266 220 256 262 281 289 282 285 281 323 292 282 311 310 314 313 313 310 310 309 311 305 296 298
308 300 299 289 277 270 273 269 275 254 269 270 282 282 261 258 263 271 289 296 294 279 273 306 294 317 279 292 303 299 358 322 310 315 312 313 313 313 311 316 310 316 323
310 303 326 315 296 281 275 269 261 262 271 281 282 287 279 279 277 268 258 263 285 295 287 294 297 279 301 293 313 335 297 309 318 316 313 323 341 350 351 351 0 357 342
310 316 330 312 319 312 292 282 283 277 270 264 270 275 290 297 302 288 312 303 295 286 287 285 288 297 330 325 319 353 317 326 314 314 315 328 350 359 11 13 10 16 22
299 312 301 299 301 303 310 300 283 274 282 288 281 284 294 338 8 330 1 345 306 299 282 294 303 323 358 332 342 335 308 314 318 304 305 13 4 2 12 12 10 10 21
308 304 305 298 297 296 303 304 302 294 293 297 296 307 3 347 326 16 314 343 309 306 293 310 311 321 337 334 333 321 304 319 337 36 26 14 360 358 13 19 17 8 7
314 309 302 299 298 295 293 287 276 267 253 249 269 275 276 32 12 305 282 274 271 265 274 280 290 317 345 309 301 296 278 284 323 344 3 0 350 356 21 19 21 12 3
302 296 299 297 292 290 280 284 278 260 250 249 246 256 274 284 259 257 261 259 263 282 292 307 252 238 289 290 291 289 277 277 232 263 327 320 320 336 3 5 12 8 3
287 301 328 319 292 286 287 270 282 290 292 311 262 247 252 240 256 271 297 319 327 322 294 309 313 344 271 328 298 275 277 292 292 200 255 253 270 289 296 343 354 1 356
326 336 326 326 345 313 298 292 321 334 311 270 265 279 303 313 326 4 324 318 334 333 312 288 309 255 294 297 272 250 248 267 251 224 235 223 211 244 191 299 349 3 359
336 346 340 334 333 327 23 9 346 339 332 321 295 279 346 48 8 355 350 351 309 289 281 265 274 255 261 290 302 306 302 257 298 311 332 288 218 204 245 266 275 348 355
343 336 338 337 331 320 17 342 317 287 284 292 352 74 63 63 48 28 349 331 295 303 310 344 342 336 328 345 335 315 325 313 329 302 322 298 226 210 211 222 269 30 342
341 356 359 350 349 342 355 328 300 315 333 15 68 64 60 49 352 352 322 312 349 352 346 348 284 24 12 346 336 344 311 334 335 23 330 333 315 313 5 331 33 346 340
12 14 5 6 4 356 340 340 6 48 71 71 73 70 52 15 352 12 311 262 254 278 313 323 345 7 356 334 312 315 322 310 332 5 346 336 359 325 13 135 46 359 349
22 18 14 15 29 50 55 61 69 72 81 85 80 63 15 335 18 336 327 308 318 308 301 321 345 348 350 342 335 331 316 295 275 334 352 349 343 329 316 89 52 8 2
26 25 31 39 53 54 29 44 60 66 67 71 78 51 355 343 9 342 297 286 300 294 200 287 306 302 287 274 279 313 331 345 317 33 17 346 323 317 306 55 45 360 3
38 63 71 72 81 61 26 9 350 30 53 36 65 77 62 10 340 328 317 321 309 336 351 40 330 257 246 288 222 356 344 322 324 358 29 332 4 333 311 226 7 27 346